Regional Weather Roundup
Issued by NWS

Home | Current Version | Previous Version | Graphics & Text | Print | Product List | Glossary On
Versions: 1 2 3 4 5 6 7 8 9 10 11 12 13 14 15 16 17 18 19 20 21 22 23 24 25 26 27 28 29 30 31 32 33 34 35 36 37 38 39 40 41 42 43 44 45 46 47 48 49 50
000
ASUS45 KBOI 011510
RWRID
WEATHER ROUNDUP FOR IDAHO
NATIONAL WEATHER SERVICE BOISE ID
900 AM MDT WED OCT 01 2014

NOTE: "FAIR" INDICATES FEW OR NO CLOUDS BELOW 12000 FEET
WITH NO SIGNIFICANT WEATHER AND/OR OBSTRUCTIONS TO VISIBILITY

IDZ012-014-011600-
SOUTHWEST IDAHO


CITY           SKY/WX    TMP DP  RH WIND       PRES   REMARKS
BOISE          SUNNY     45  39  79 NW3       30.16R
CALDWELL       SUNNY     46  34  61 NW5       30.18R
MOUNTAIN HOME  SUNNY     44  41  89 NW14      30.14R
$$

IDZ016-017-011600-
SOUTHCENTRAL IDAHO


CITY           SKY/WX    TMP DP  RH WIND       PRES   REMARKS
BURLEY         PTSUNNY   43  39  86 SW10      30.10S
JEROME         SUNNY     41  37  86 SW5       30.11R
TWIN FALLS     SUNNY     44  36  73 SW12      30.12R
$$

IDZ019>023-011600-
SOUTHEAST IDAHO


CITY           SKY/WX    TMP DP  RH WIND       PRES   REMARKS
IDAHO FALLS    MOSUNNY   43  38  82 SW7       30.06R
POCATELLO      MOSUNNY   43  40  89 SW14      30.08R
REXBURG        MOSUNNY   41  37  86 SW6       30.05R
$$

IDZ006-010-011-018-031-032-011600-
CENTRAL IDAHO MOUNTAINS


CITY           SKY/WX    TMP DP  RH WIND       PRES   REMARKS
MCCALL         SUNNY     33  31  92 CALM      30.13R
HAILEY         MOSUNNY   37  30  75 W6        30.10R WCI  33
STANLEY          N/A     34  30  85 CALM      30.14R
SALMON         CLOUDY    45  37  76 CALM      30.11R
CHALLIS        CLOUDY    43  33  68 CALM      30.11R
$$

IDZ002-004-006-007-026-011600-
NORTHERN IDAHO


CITY           SKY/WX    TMP DP  RH WIND       PRES   REMARKS
LEWISTON       SUNNY     46  42  86 CALM      30.15R
LOWELL           N/A     48  46  93 CALM      30.18R
COEUR D`ALENE  SUNNY     45  39  81 S7        30.11R
MULLAN PASS    FOG       32  32 100 VRB5      30.07R VSB<1/4 WCI  27
$$



USA.gov is the U.S. government's official web portal to all federal, state and local government web resources and services.